SL-8 R/B

Track SL-8 R/B now!
10-day predictions
SL-8 R/B is classified as:


NORAD ID: 13917
Int'l Code: 1983-021B
Perigee: 962.6 km
Apogee: 1,002.5 km
Inclination: 82.9 °
Period: 104.6 minutes
Semi major axis: 7353 km
RCS: 4.8067 m2 (large)
Launch date: March 24, 1983
Source: Commonwealth of Independent States (former USSR) (CIS)

Note: This is a ROCKET BODY
Your satellite tracking list
Your tracking list is empty





NASA's NSSDC Master Catalog

Two Line Element Set (TLE):
1 13917U 83021B   15124.46329767 -.00000022  00000-0 -37734-4 0  9996
2 13917 082.9414 102.3825 0027107 257.8488 213.6991 13.76759609612981

Source of the keplerian elements: AFSPC

N2YO: 3817